| time (UTC) | temp F | wind direction | speed MPH | gust MPH | rain 1hr in | rain 24hr in | rain mn in | humidity % | barometer mb |
| 20260831062843 | 53 | 291 | 0.0 | 0.0 | 0.00 | 0.00 | 0.00 | 96 | 1012.0 |
| 20260831062339 | 53 | 291 | 0.0 | 0.0 | 0.00 | 0.00 | 0.00 | 95 | 1012.1 |
| 20260831061838 | 53 | 291 | 0.0 | 0.0 | 0.00 | 0.00 | 0.00 | 95 | 1012.1 |
| 20260831061337 | 53 | 291 | 0.0 | 0.0 | 0.00 | 0.00 | 0.00 | 95 | 1012.2 |
| 20260831060834 | 53 | 274 | 0.0 | 0.0 | 0.00 | 0.00 | 0.00 | 95 | 1012.3 |
| 20260831060333 | 53 | 296 | 0.0 | 0.0 | 0.00 | 0.00 | 0.00 | 95 | 1012.1 |
| 20260831055833 | 53 | 293 | 0.0 | 0.0 | 0.00 | 0.00 | 0.00 | 95 | 1012.1 |
| 20260831055328 | 53 | 293 | 0.0 | 0.0 | 0.00 | 0.00 | 0.00 | 95 | 1012.2 |
| 20260831054823 | 53 | 272 | 0.0 | 0.0 | 0.00 | 0.00 | 0.00 | 95 | 1012.1 |
| 20260831054318 | 53 | 273 | 0.0 | 0.0 | 0.00 | 0.00 | 0.00 | 95 | 1012.1 |
| 20260831053818 | 53 | 263 | 0.0 | 0.0 | 0.00 | 0.00 | 0.00 | 95 | 1012.3 |
| 20260831053316 | 53 | 241 | 0.0 | 0.0 | 0.00 | 0.00 | 0.00 | 95 | 1012.2 |
| 20260831052811 | 53 | 241 | 0.0 | 0.0 | 0.00 | 0.00 | 0.00 | 95 | 1012.2 |
| 20260831052310 | 54 | 242 | 0.0 | 0.0 | 0.00 | 0.00 | 0.00 | 94 | 1012.2 |
| 20260831051808 | 54 | 247 | 0.0 | 0.0 | 0.00 | 0.00 | 0.00 | 94 | 1012.2 |
| 20260831051307 | 54 | 249 | 0.0 | 0.0 | 0.00 | 0.00 | 0.00 | 94 | 1012.2 |
| 20260831050802 | 53 | 299 | 0.0 | 0.0 | 0.00 | 0.00 | 0.00 | 94 | 1012.2 |
| 20260831050301 | 54 | 254 | 0.0 | 0.0 | 0.00 | 0.00 | 0.00 | 93 | 1012.1 |
| 20260831045756 | 54 | 242 | 0.0 | 0.0 | 0.00 | 0.00 | 0.00 | 93 | 1012.4 |
| 20260831045250 | 54 | 242 | 0.0 | 0.0 | 0.00 | 0.00 | 0.00 | 93 | 1012.2 |
| 20260831044740 | 54 | 242 | 0.0 | 0.0 | 0.00 | 0.00 | 0.00 | 93 | 1012.2 |
| 20260831044234 | 54 | 242 | 0.0 | 0.0 | 0.00 | 0.00 | 0.00 | 93 | 1012.3 |
| 20260831043730 | 54 | 241 | 0.0 | 0.0 | 0.00 | 0.00 | 0.00 | 92 | 1012.3 |
| 20260831043225 | 55 | 249 | 0.0 | 0.0 | 0.00 | 0.00 | 0.00 | 92 | 1012.3 |
| 20260831042725 | 55 | 249 | 0.0 | 0.0 | 0.00 | 0.00 | 0.00 | 92 | 1012.1 |
| 20260831042219 | 55 | 252 | 0.0 | 0.0 | 0.00 | 0.00 | 0.00 | 91 | 1012.2 |
| 20260831041714 | 55 | 255 | 0.0 | 0.0 | 0.00 | 0.00 | 0.00 | 91 | 1012.1 |
| 20260831041209 | 55 | 255 | 0.0 | 0.0 | 0.00 | 0.00 | 0.00 | 91 | 1012.1 |
| 20260831040703 | 55 | 256 | 0.0 | 0.0 | 0.00 | 0.00 | 0.00 | 91 | 1012.0 |
| 20260831040202 | 55 | 232 | 0.0 | 0.0 | 0.00 | 0.00 | 0.00 | 90 | 1011.9 |
| 20260831035701 | 55 | 241 | 0.0 | 0.0 | 0.00 | 0.00 | 0.00 | 90 | 1011.9 |
| 20260831035155 | 56 | 247 | 0.0 | 0.0 | 0.00 | 0.00 | 0.00 | 89 | 1011.9 |
| 20260831034655 | 56 | 239 | 0.0 | 0.0 | 0.00 | 0.00 | 0.00 | 89 | 1012.0 |
| 20260831034150 | 56 | 256 | 0.0 | 0.0 | 0.00 | 0.00 | 0.00 | 89 | 1011.8 |
| 20260831033646 | 56 | 256 | 0.0 | 0.0 | 0.00 | 0.00 | 0.00 | 89 | 1011.9 |
| 20260831033141 | 56 | 256 | 0.0 | 0.0 | 0.00 | 0.00 | 0.00 | 88 | 1011.9 |
| 20260831032640 | 57 | 256 | 0.0 | 0.0 | 0.00 | 0.00 | 0.00 | 88 | 1011.8 |
| 20260831032136 | 57 | 264 | 0.0 | 0.0 | 0.00 | 0.00 | 0.00 | 87 | 1011.8 |
| 20260831031636 | 57 | 248 | 0.0 | 0.0 | 0.00 | 0.00 | 0.00 | 86 | 1011.8 |
| 20260831031135 | 57 | 242 | 0.0 | 0.0 | 0.00 | 0.00 | 0.00 | 85 | 1011.8 |
| 20260831030634 | 58 | 264 | 0.0 | 0.0 | 0.00 | 0.00 | 0.00 | 85 | 1011.8 |
| 20260831030133 | 58 | 233 | 0.0 | 0.0 | 0.00 | 0.00 | 0.00 | 84 | 1011.8 |
| 20260831025632 | 59 | 259 | 0.0 | 1.0 | 0.00 | 0.00 | 0.00 | 83 | 1011.8 |
| 20260831025127 | 59 | 253 | 0.0 | 3.0 | 0.00 | 0.00 | 0.00 | 81 | 1011.9 |
| 20260831024623 | 60 | 262 | 0.0 | 1.0 | 0.00 | 0.00 | 0.00 | 79 | 1011.7 |
| 20260831024122 | 61 | 257 | 0.0 | 1.0 | 0.00 | 0.00 | 0.00 | 77 | 1011.7 |
| 20260831023620 | 62 | 223 | 2.0 | 3.0 | 0.00 | 0.00 | 0.00 | 75 | 1011.8 |
| 20260831023120 | 63 | 250 | 0.0 | 4.0 | 0.00 | 0.00 | 0.00 | 74 | 1011.8 |
| 20260831022615 | 64 | 258 | 0.0 | 0.0 | 0.00 | 0.00 | 0.00 | 71 | 1011.9 |
| 20260831022110 | 65 | 240 | 1.0 | 3.0 | 0.00 | 0.00 | 0.00 | 70 | 1011.9 |
| 20260831021609 | 65 | 204 | 1.0 | 3.0 | 0.00 | 0.00 | 0.00 | 68 | 1011.9 |
| 20260831021105 | 66 | 184 | 2.0 | 4.0 | 0.00 | 0.00 | 0.00 | 67 | 1011.8 |
| 20260831020601 | 67 | 246 | 2.0 | 4.0 | 0.00 | 0.00 | 0.00 | 65 | 1011.9 |
| 20260831020055 | 68 | 242 | 1.0 | 4.0 | 0.00 | 0.00 | 0.00 | 63 | 1012.0 |
| 20260831015551 | 68 | 241 | 1.0 | 4.0 | 0.00 | 0.00 | 0.00 | 62 | 1012.0 |
| 20260831015050 | 69 | 271 | 3.0 | 5.0 | 0.00 | 0.00 | 0.00 | 62 | 1012.0 |
| 20260831014545 | 69 | 317 | 0.0 | 4.0 | 0.00 | 0.00 | 0.00 | 60 | 1012.0 |
| 20260831014041 | 71 | 245 | 1.0 | 5.0 | 0.00 | 0.00 | 0.00 | 58 | 1012.0 |
| 20260831013537 | 72 | 209 | 0.0 | 4.0 | 0.00 | 0.00 | 0.00 | 56 | 1011.9 |
| 20260831013031 | 73 | 255 | 1.0 | 3.0 | 0.00 | 0.00 | 0.00 | 54 | 1011.8 |
| 20260831012526 | 74 | 277 | 2.0 | 3.0 | 0.00 | 0.00 | 0.00 | 53 | 1011.9 |
| 20260831012021 | 73 | 235 | 3.0 | 5.0 | 0.00 | 0.00 | 0.00 | 54 | 1011.9 |
| 20260831011520 | 75 | 265 | 7.0 | 8.0 | 0.00 | 0.00 | 0.00 | 51 | 1011.9 |
| 20260831011016 | 74 | 254 | 4.0 | 4.0 | 0.00 | 0.00 | 0.00 | 50 | 1011.9 |
| 20260831010511 | 73 | 262 | 1.0 | 5.0 | 0.00 | 0.00 | 0.00 | 52 | 1012.0 |
| 20260831010007 | 74 | 251 | 3.0 | 7.0 | 0.00 | 0.00 | 0.00 | 51 | 1011.9 |
| 20260831005502 | 74 | 255 | 0.0 | 5.0 | 0.00 | 0.00 | 0.00 | 51 | 1012.0 |
| 20260831005001 | 74 | 250 | 1.0 | 7.0 | 0.00 | 0.00 | 0.00 | 51 | 1012.2 |
| 20260831004458 | 75 | 254 | 6.0 | 8.0 | 0.00 | 0.00 | 0.00 | 48 | 1012.1 |
| 20260831003959 | 75 | 270 | 5.0 | 7.0 | 0.00 | 0.00 | 0.00 | 48 | 1012.0 |
| 20260831003455 | 75 | 259 | 6.0 | 7.0 | 0.00 | 0.00 | 0.00 | 49 | 1012.0 |
| 20260831002954 | 77 | 235 | 6.0 | 8.0 | 0.00 | 0.00 | 0.00 | 48 | 1012.1 |
| 20260831002453 | 77 | 263 | 5.0 | 7.0 | 0.00 | 0.00 | 0.00 | 46 | 1012.1 |
| 20260831001949 | 75 | 250 | 3.0 | 8.0 | 0.00 | 0.00 | 0.00 | 50 | 1012.0 |
| 20260831001444 | 76 | 285 | 6.0 | 7.0 | 0.00 | 0.00 | 0.00 | 46 | 1012.1 |
| 20260831000941 | 76 | 261 | 7.0 | 11.0 | 0.00 | 0.00 | 0.00 | 49 | 1012.2 |
| 20260831000436 | 77 | 270 | 5.0 | 8.0 | 0.00 | 0.00 | 0.00 | 47 | 1012.1 |
| 20260830235934 | 76 | 250 | 3.0 | 8.0 | 0.00 | 0.00 | 0.00 | 48 | 1012.1 |
| 20260830235430 | 75 | 242 | 7.0 | 8.0 | 0.00 | 0.00 | 0.00 | 48 | 1012.2 |
| 20260830234925 | 78 | 224 | 2.0 | 5.0 | 0.00 | 0.00 | 0.00 | 46 | 1012.3 |
| 20260830234420 | 78 | 292 | 5.0 | 7.0 | 0.00 | 0.00 | 0.00 | 47 | 1012.4 |
| 20260830233916 | 75 | 243 | 4.0 | 8.0 | 0.00 | 0.00 | 0.00 | 49 | 1012.4 |
| 20260830233411 | 76 | 261 | 5.0 | 8.0 | 0.00 | 0.00 | 0.00 | 48 | 1012.2 |
| 20260830232907 | 77 | 255 | 5.0 | 8.0 | 0.00 | 0.00 | 0.00 | 48 | 1012.2 |
| 20260830232403 | 76 | 261 | 5.0 | 10.0 | 0.00 | 0.00 | 0.00 | 48 | 1012.2 |
| 20260830231859 | 75 | 263 | 5.0 | 11.0 | 0.00 | 0.00 | 0.00 | 50 | 1012.2 |
| 20260830231354 | 77 | 241 | 7.0 | 14.0 | 0.00 | 0.00 | 0.00 | 48 | 1012.3 |
| 20260830230853 | 78 | 258 | 2.0 | 4.0 | 0.00 | 0.00 | 0.00 | 46 | 1012.3 |
| 20260830230349 | 77 | 243 | 7.0 | 11.0 | 0.00 | 0.00 | 0.00 | 47 | 1012.3 |
| 20260830225848 | 78 | 238 | 3.0 | 7.0 | 0.00 | 0.00 | 0.00 | 48 | 1012.3 |
| 20260830225343 | 77 | 231 | 3.0 | 8.0 | 0.00 | 0.00 | 0.00 | 47 | 1012.3 |
| 20260830224838 | 77 | 256 | 6.0 | 12.0 | 0.00 | 0.00 | 0.00 | 48 | 1012.3 |
| 20260830224332 | 78 | 280 | 5.0 | 12.0 | 0.00 | 0.00 | 0.00 | 48 | 1012.4 |
| 20260830223829 | 78 | 276 | 3.0 | 11.0 | 0.00 | 0.00 | 0.00 | 48 | 1012.4 |
| 20260830223325 | 79 | 231 | 5.0 | 8.0 | 0.00 | 0.00 | 0.00 | 47 | 1012.4 |
| 20260830222824 | 79 | 254 | 5.0 | 5.0 | 0.00 | 0.00 | 0.00 | 46 | 1012.5 |
| 20260830222319 | 80 | 261 | 7.0 | 10.0 | 0.00 | 0.00 | 0.00 | 46 | 1012.4 |
| 20260830221815 | 79 | 251 | 3.0 | 8.0 | 0.00 | 0.00 | 0.00 | 48 | 1012.5 |
| 20260830221313 | 78 | 253 | 6.0 | 8.0 | 0.00 | 0.00 | 0.00 | 49 | 1012.6 |
| 20260830220812 | 78 | 321 | 5.0 | 11.0 | 0.00 | 0.00 | 0.00 | 48 | 1012.5 |
| 20260830220312 | 79 | 248 | 9.0 | 11.0 | 0.00 | 0.00 | 0.00 | 48 | 1012.6 |
| 20260830215809 | 78 | 252 | 6.0 | 8.0 | 0.00 | 0.00 | 0.00 | 48 | 1012.7 |
| 20260830215306 | 80 | 265 | 6.0 | 10.0 | 0.00 | 0.00 | 0.00 | 46 | 1012.7 |
| 20260830214800 | 82 | 249 | 7.0 | 8.0 | 0.00 | 0.00 | 0.00 | 44 | 1012.7 |
| 20260830214255 | 79 | 246 | 5.0 | 10.0 | 0.00 | 0.00 | 0.00 | 47 | 1012.8 |
| 20260830213754 | 80 | 252 | 5.0 | 8.0 | 0.00 | 0.00 | 0.00 | 46 | 1012.8 |
| 20260830213249 | 80 | 248 | 5.0 | 14.0 | 0.00 | 0.00 | 0.00 | 48 | 1013.0 |
| 20260830212745 | 81 | 255 | 7.0 | 10.0 | 0.00 | 0.00 | 0.00 | 45 | 1013.1 |
| 20260830212241 | 83 | 273 | 6.0 | 10.0 | 0.00 | 0.00 | 0.00 | 45 | 1013.2 |
| 20260830211740 | 82 | 236 | 1.0 | 5.0 | 0.00 | 0.00 | 0.00 | 43 | 1013.1 |
| 20260830211239 | 82 | 205 | 2.0 | 5.0 | 0.00 | 0.00 | 0.00 | 44 | 1013.1 |
| 20260830210736 | 83 | 149 | 1.0 | 3.0 | 0.00 | 0.00 | 0.00 | 43 | 1013.2 |
| 20260830210235 | 82 | 233 | 4.0 | 7.0 | 0.00 | 0.00 | 0.00 | 44 | 1013.3 |
| 20260830205732 | 80 | 255 | 3.0 | 10.0 | 0.00 | 0.00 | 0.00 | 47 | 1013.2 |
| 20260830205227 | 81 | 244 | 2.0 | 5.0 | 0.00 | 0.00 | 0.00 | 45 | 1013.3 |
| 20260830204722 | 81 | 269 | 2.0 | 7.0 | 0.00 | 0.00 | 0.00 | 46 | 1013.3 |
| 20260830204221 | 79 | 272 | 1.0 | 4.0 | 0.00 | 0.00 | 0.00 | 47 | 1013.3 |
| 20260830203717 | 79 | 272 | 3.0 | 5.0 | 0.00 | 0.00 | 0.00 | 47 | 1013.4 |
| 20260830203212 | 79 | 217 | 1.0 | 5.0 | 0.00 | 0.00 | 0.00 | 48 | 1013.4 |
| 20260830202711 | 78 | 241 | 3.0 | 7.0 | 0.00 | 0.00 | 0.00 | 49 | 1013.4 |
| 20260830202207 | 78 | 200 | 1.0 | 10.0 | 0.00 | 0.00 | 0.00 | 49 | 1013.4 |
| 20260830201701 | 77 | 222 | 1.0 | 5.0 | 0.00 | 0.00 | 0.00 | 51 | 1013.6 |
| 20260830201156 | 76 | 56 | 1.0 | 3.0 | 0.00 | 0.00 | 0.00 | 52 | 1013.6 |
| 20260830200652 | 77 | 251 | 5.0 | 7.0 | 0.00 | 0.00 | 0.00 | 50 | 1013.6 |
| 20260830200151 | 76 | 267 | 4.0 | 5.0 | 0.00 | 0.00 | 0.00 | 53 | 1013.7 |
| 20260830195647 | 75 | 262 | 3.0 | 5.0 | 0.00 | 0.00 | 0.00 | 54 | 1013.8 |
| 20260830195144 | 76 | 255 | 5.0 | 7.0 | 0.00 | 0.00 | 0.00 | 53 | 1013.9 |
| 20260830194643 | 75 | 20 | 0.0 | 5.0 | 0.00 | 0.00 | 0.00 | 55 | 1013.8 |
| 20260830194138 | 76 | 254 | 4.0 | 5.0 | 0.00 | 0.00 | 0.00 | 54 | 1013.9 |
| 20260830193632 | 75 | 265 | 1.0 | 4.0 | 0.00 | 0.00 | 0.00 | 55 | 1013.9 |
| 20260830193127 | 74 | 262 | 1.0 | 5.0 | 0.00 | 0.00 | 0.00 | 56 | 1013.9 |
| 20260830192623 | 73 | 264 | 3.0 | 5.0 | 0.00 | 0.00 | 0.00 | 58 | 1014.0 |
| 20260830192122 | 74 | 255 | 4.0 | 5.0 | 0.00 | 0.00 | 0.00 | 58 | 1014.0 |
| 20260830191618 | 72 | 56 | 1.0 | 5.0 | 0.00 | 0.00 | 0.00 | 59 | 1014.0 |
| 20260830191113 | 73 | 217 | 1.0 | 3.0 | 0.00 | 0.00 | 0.00 | 59 | 1014.0 |
| 20260830190609 | 72 | 261 | 2.0 | 5.0 | 0.00 | 0.00 | 0.00 | 61 | 1014.1 |
| 20260830190104 | 72 | 271 | 2.0 | 5.0 | 0.00 | 0.00 | 0.00 | 60 | 1014.1 |
| 20260830185602 | 70 | 198 | 0.0 | 4.0 | 0.00 | 0.00 | 0.00 | 63 | 1014.0 |
| 20260830185058 | 69 | 244 | 1.0 | 7.0 | 0.00 | 0.00 | 0.00 | 66 | 1014.0 |
| 20260830184557 | 69 | 256 | 5.0 | 7.0 | 0.00 | 0.00 | 0.00 | 64 | 1014.2 |
| 20260830184052 | 69 | 247 | 3.0 | 5.0 | 0.00 | 0.00 | 0.00 | 65 | 1014.3 |
| 20260830183546 | 69 | 263 | 5.0 | 5.0 | 0.00 | 0.00 | 0.00 | 64 | 1014.1 |
| 20260830183043 | 70 | 260 | 0.0 | 5.0 | 0.00 | 0.00 | 0.00 | 66 | 1014.3 |
| 20260830182538 | 68 | 214 | 2.0 | 7.0 | 0.00 | 0.00 | 0.00 | 68 | 1014.2 |
| 20260830182034 | 69 | 253 | 4.0 | 7.0 | 0.00 | 0.00 | 0.00 | 66 | 1014.2 |
| 20260830181530 | 69 | 249 | 4.0 | 4.0 | 0.00 | 0.00 | 0.00 | 66 | 1014.3 |
| 20260830181029 | 68 | 263 | 1.0 | 5.0 | 0.00 | 0.00 | 0.00 | 67 | 1014.3 |
| 20260830180523 | 68 | 259 | 5.0 | 5.0 | 0.00 | 0.00 | 0.00 | 68 | 1014.3 |
| 20260830180022 | 69 | 242 | 1.0 | 3.0 | 0.00 | 0.00 | 0.00 | 66 | 1014.4 |
| 20260830175522 | 69 | 262 | 1.0 | 3.0 | 0.00 | 0.00 | 0.00 | 65 | 1014.3 |
| 20260830175017 | 67 | 264 | 1.0 | 7.0 | 0.00 | 0.00 | 0.00 | 69 | 1014.4 |
| 20260830174513 | 68 | 269 | 0.0 | 1.0 | 0.00 | 0.00 | 0.00 | 66 | 1014.3 |
| 20260830174008 | 68 | 251 | 1.0 | 4.0 | 0.00 | 0.00 | 0.00 | 68 | 1014.2 |
| 20260830173504 | 66 | 234 | 0.0 | 4.0 | 0.00 | 0.00 | 0.00 | 70 | 1014.3 |
| 20260830173003 | 65 | 258 | 3.0 | 5.0 | 0.00 | 0.00 | 0.00 | 72 | 1014.3 |
| 20260830172500 | 66 | 264 | 0.0 | 0.0 | 0.00 | 0.00 | 0.00 | 71 | 1014.3 |
| 20260830171955 | 65 | 239 | 0.0 | 0.0 | 0.00 | 0.00 | 0.00 | 72 | 1014.2 |
| 20260830171451 | 66 | 264 | 0.0 | 0.0 | 0.00 | 0.00 | 0.00 | 71 | 1014.2 |
| 20260830170951 | 66 | 259 | 0.0 | 0.0 | 0.00 | 0.00 | 0.00 | 71 | 1014.2 |
| 20260830170445 | 65 | 235 | 0.0 | 0.0 | 0.00 | 0.00 | 0.00 | 72 | 1014.1 |
| 20260830165943 | 62 | 240 | 0.0 | 0.0 | 0.00 | 0.00 | 0.00 | 77 | 1014.2 |
| 20260830165440 | 62 | 254 | 0.0 | 0.0 | 0.00 | 0.00 | 0.00 | 78 | 1014.1 |
| 20260830164936 | 62 | 250 | 0.0 | 0.0 | 0.00 | 0.00 | 0.00 | 78 | 1014.1 |
| 20260830164432 | 62 | 263 | 0.0 | 0.0 | 0.00 | 0.00 | 0.00 | 77 | 1014.1 |
| 20260830163923 | 62 | 263 | 0.0 | 0.0 | 0.00 | 0.00 | 0.00 | 78 | 1014.1 |
| 20260830163419 | 63 | 245 | 0.0 | 0.0 | 0.00 | 0.00 | 0.00 | 76 | 1014.1 |
| 20260830162918 | 62 | 219 | 0.0 | 0.0 | 0.00 | 0.00 | 0.00 | 76 | 1014.1 |
| 20260830162414 | 60 | 245 | 0.0 | 0.0 | 0.00 | 0.00 | 0.00 | 80 | 1014.2 |
| 20260830161909 | 59 | 243 | 0.0 | 0.0 | 0.00 | 0.00 | 0.00 | 82 | 1014.1 |
| 20260830161408 | 61 | 257 | 0.0 | 0.0 | 0.00 | 0.00 | 0.00 | 79 | 1014.2 |
| 20260830160903 | 60 | 261 | 0.0 | 0.0 | 0.00 | 0.00 | 0.00 | 81 | 1014.2 |
| 20260830160359 | 60 | 262 | 0.0 | 0.0 | 0.00 | 0.00 | 0.00 | 80 | 1014.2 |
| 20260830155854 | 59 | 230 | 0.0 | 0.0 | 0.00 | 0.00 | 0.00 | 82 | 1014.1 |
| 20260830155350 | 59 | 256 | 0.0 | 0.0 | 0.00 | 0.00 | 0.00 | 83 | 1014.1 |
| 20260830154845 | 59 | 256 | 0.0 | 0.0 | 0.00 | 0.00 | 0.00 | 82 | 1014.2 |
| 20260830154341 | 59 | 308 | 0.0 | 0.0 | 0.00 | 0.00 | 0.00 | 82 | 1014.1 |
| 20260830153838 | 57 | 309 | 0.0 | 0.0 | 0.00 | 0.00 | 0.00 | 85 | 1014.1 |
| 20260830153333 | 57 | 309 | 0.0 | 0.0 | 0.00 | 0.00 | 0.00 | 85 | 1014.1 |
| 20260830152831 | 58 | 309 | 0.0 | 0.0 | 0.00 | 0.00 | 0.00 | 84 | 1014.1 |
| 20260830152326 | 56 | 309 | 0.0 | 0.0 | 0.00 | 0.00 | 0.00 | 87 | 1014.0 |
| 20260830151821 | 56 | 309 | 0.0 | 0.0 | 0.00 | 0.00 | 0.00 | 86 | 1014.0 |
| 20260830151320 | 57 | 309 | 0.0 | 0.0 | 0.00 | 0.00 | 0.00 | 85 | 1014.0 |
| 20260830150816 | 55 | 309 | 0.0 | 0.0 | 0.00 | 0.00 | 0.00 | 91 | 1014.0 |
| 20260830150315 | 54 | 309 | 0.0 | 0.0 | 0.00 | 0.00 | 0.00 | 93 | 1013.9 |
| 20260830145809 | 53 | 309 | 0.0 | 0.0 | 0.00 | 0.00 | 0.00 | 95 | 1014.0 |
| 20260830145306 | 52 | 309 | 0.0 | 0.0 | 0.00 | 0.00 | 0.00 | 95 | 1013.9 |
| 20260830144800 | 52 | 309 | 0.0 | 0.0 | 0.00 | 0.00 | 0.00 | 95 | 1013.8 |
| 20260830144255 | 51 | 309 | 0.0 | 0.0 | 0.00 | 0.00 | 0.00 | 95 | 1013.9 |
| 20260830143751 | 51 | 309 | 0.0 | 0.0 | 0.00 | 0.00 | 0.00 | 95 | 1013.9 |
| 20260830143250 | 52 | 309 | 0.0 | 0.0 | 0.00 | 0.00 | 0.00 | 95 | 1013.9 |
| 20260830142745 | 51 | 309 | 0.0 | 0.0 | 0.00 | 0.00 | 0.00 | 95 | 1013.8 |
| 20260830142240 | 51 | 310 | 0.0 | 0.0 | 0.00 | 0.00 | 0.00 | 95 | 1013.6 |
| 20260830141735 | 51 | 310 | 0.0 | 0.0 | 0.00 | 0.00 | 0.00 | 95 | 1013.6 |
| 20260830141230 | 51 | 310 | 0.0 | 0.0 | 0.00 | 0.00 | 0.00 | 95 | 1013.6 |
| 20260830140719 | 51 | 310 | 0.0 | 0.0 | 0.00 | 0.00 | 0.00 | 95 | 1013.4 |
| 20260830140214 | 51 | 310 | 0.0 | 0.0 | 0.00 | 0.00 | 0.00 | 95 | 1013.5 |
| 20260830135709 | 51 | 310 | 0.0 | 0.0 | 0.00 | 0.00 | 0.00 | 95 | 1013.4 |
| 20260830135204 | 51 | 311 | 0.0 | 0.0 | 0.00 | 0.00 | 0.00 | 95 | 1013.4 |
| 20260830134700 | 51 | 311 | 0.0 | 0.0 | 0.00 | 0.00 | 0.00 | 95 | 1013.3 |
| 20260830134155 | 51 | 311 | 0.0 | 0.0 | 0.00 | 0.00 | 0.00 | 94 | 1013.4 |
| 20260830133650 | 51 | 311 | 0.0 | 0.0 | 0.00 | 0.00 | 0.00 | 94 | 1013.2 |
| 20260830133146 | 51 | 311 | 0.0 | 0.0 | 0.00 | 0.00 | 0.00 | 94 | 1013.3 |
| 20260830132642 | 51 | 311 | 0.0 | 0.0 | 0.00 | 0.00 | 0.00 | 94 | 1013.2 |
| 20260830132137 | 52 | 311 | 0.0 | 0.0 | 0.00 | 0.00 | 0.00 | 94 | 1013.1 |
| 20260830131636 | 52 | 311 | 0.0 | 0.0 | 0.00 | 0.00 | 0.00 | 94 | 1013.1 |
| 20260830131131 | 52 | 311 | 0.0 | 0.0 | 0.00 | 0.00 | 0.00 | 94 | 1013.0 |
| 20260830130626 | 51 | 310 | 0.0 | 0.0 | 0.00 | 0.00 | 0.00 | 94 | 1013.0 |
| 20260830130125 | 52 | 310 | 0.0 | 0.0 | 0.00 | 0.00 | 0.00 | 94 | 1013.0 |
| 20260830125625 | 52 | 310 | 0.0 | 0.0 | 0.00 | 0.00 | 0.00 | 94 | 1012.8 |
| 20260830125126 | 52 | 310 | 0.0 | 0.0 | 0.00 | 0.00 | 0.00 | 94 | 1012.8 |
| 20260830124624 | 51 | 310 | 0.0 | 0.0 | 0.00 | 0.00 | 0.00 | 94 | 1012.9 |
| 20260830124119 | 52 | 310 | 0.0 | 0.0 | 0.00 | 0.00 | 0.00 | 94 | 1012.9 |
| 20260830123617 | 52 | 310 | 0.0 | 0.0 | 0.00 | 0.00 | 0.00 | 94 | 1012.8 |
| 20260830123112 | 52 | 310 | 0.0 | 0.0 | 0.00 | 0.00 | 0.00 | 94 | 1012.8 |
| 20260830122608 | 52 | 310 | 0.0 | 0.0 | 0.00 | 0.00 | 0.00 | 94 | 1012.8 |
| 20260830122104 | 52 | 310 | 0.0 | 0.0 | 0.00 | 0.00 | 0.00 | 94 | 1012.7 |
| 20260830121600 | 52 | 310 | 0.0 | 0.0 | 0.00 | 0.00 | 0.00 | 94 | 1012.8 |
| 20260830121059 | 52 | 310 | 0.0 | 0.0 | 0.00 | 0.00 | 0.00 | 94 | 1012.7 |
| 20260830120554 | 52 | 310 | 0.0 | 0.0 | 0.00 | 0.00 | 0.00 | 94 | 1012.7 |
| 20260830120051 | 52 | 310 | 0.0 | 0.0 | 0.00 | 0.00 | 0.00 | 93 | 1012.8 |
| 20260830115547 | 52 | 310 | 0.0 | 0.0 | 0.00 | 0.00 | 0.00 | 93 | 1012.7 |
| 20260830115042 | 52 | 310 | 0.0 | 0.0 | 0.00 | 0.00 | 0.00 | 93 | 1012.7 |
| 20260830114539 | 52 | 310 | 0.0 | 0.0 | 0.00 | 0.00 | 0.00 | 93 | 1012.8 |
| 20260830114038 | 52 | 310 | 0.0 | 0.0 | 0.00 | 0.00 | 0.00 | 93 | 1012.8 |
| 20260830113533 | 52 | 310 | 0.0 | 0.0 | 0.00 | 0.00 | 0.00 | 93 | 1012.9 |
| 20260830113029 | 52 | 309 | 0.0 | 0.0 | 0.00 | 0.00 | 0.00 | 93 | 1012.9 |
| 20260830112525 | 52 | 309 | 0.0 | 0.0 | 0.00 | 0.00 | 0.00 | 93 | 1012.8 |
| 20260830112020 | 52 | 310 | 0.0 | 0.0 | 0.00 | 0.00 | 0.00 | 93 | 1012.9 |
| 20260830111516 | 52 | 310 | 0.0 | 0.0 | 0.00 | 0.00 | 0.00 | 93 | 1012.9 |
| 20260830111012 | 52 | 309 | 0.0 | 0.0 | 0.00 | 0.00 | 0.00 | 93 | 1012.9 |
| 20260830110512 | 52 | 309 | 0.0 | 0.0 | 0.00 | 0.00 | 0.00 | 93 | 1012.9 |
| 20260830110007 | 52 | 309 | 0.0 | 0.0 | 0.00 | 0.00 | 0.00 | 93 | 1012.9 |
| 20260830105503 | 52 | 309 | 0.0 | 0.0 | 0.00 | 0.00 | 0.00 | 92 | 1012.9 |
| 20260830104959 | 52 | 309 | 0.0 | 0.0 | 0.00 | 0.00 | 0.00 | 92 | 1012.8 |
| 20260830104455 | 52 | 309 | 0.0 | 0.0 | 0.00 | 0.00 | 0.00 | 92 | 1012.7 |
| 20260830103950 | 53 | 309 | 0.0 | 0.0 | 0.00 | 0.00 | 0.00 | 92 | 1012.8 |
| 20260830103445 | 53 | 309 | 0.0 | 0.0 | 0.00 | 0.00 | 0.00 | 92 | 1012.8 |
| 20260830102943 | 53 | 309 | 0.0 | 0.0 | 0.00 | 0.00 | 0.00 | 92 | 1012.8 |
| 20260830102438 | 53 | 309 | 0.0 | 0.0 | 0.00 | 0.00 | 0.00 | 92 | 1012.8 |
| 20260830101934 | 53 | 309 | 0.0 | 0.0 | 0.00 | 0.00 | 0.00 | 92 | 1012.9 |
| 20260830101430 | 53 | 308 | 0.0 | 0.0 | 0.00 | 0.00 | 0.00 | 92 | 1012.8 |
| 20260830100929 | 53 | 309 | 0.0 | 0.0 | 0.00 | 0.00 | 0.00 | 92 | 1012.9 |
| 20260830100428 | 53 | 308 | 0.0 | 0.0 | 0.00 | 0.00 | 0.00 | 91 | 1012.9 |
| 20260830095927 | 53 | 306 | 0.0 | 0.0 | 0.00 | 0.00 | 0.00 | 91 | 1012.9 |
| 20260830095423 | 53 | 306 | 0.0 | 0.0 | 0.00 | 0.00 | 0.00 | 91 | 1012.9 |
| 20260830094920 | 53 | 306 | 0.0 | 0.0 | 0.00 | 0.00 | 0.00 | 91 | 1012.9 |
| 20260830094415 | 53 | 306 | 0.0 | 0.0 | 0.00 | 0.00 | 0.00 | 91 | 1012.9 |
| 20260830093911 | 53 | 306 | 0.0 | 0.0 | 0.00 | 0.00 | 0.00 | 90 | 1012.9 |
| 20260830093406 | 53 | 306 | 0.0 | 0.0 | 0.00 | 0.00 | 0.00 | 90 | 1013.0 |
| 20260830092901 | 53 | 310 | 0.0 | 0.0 | 0.00 | 0.00 | 0.00 | 90 | 1012.8 |
| 20260830092357 | 53 | 310 | 0.0 | 0.0 | 0.00 | 0.00 | 0.00 | 91 | 1012.9 |
| 20260830091854 | 53 | 309 | 0.0 | 0.0 | 0.00 | 0.00 | 0.00 | 90 | 1012.8 |
| 20260830091353 | 54 | 310 | 0.0 | 0.0 | 0.00 | 0.00 | 0.00 | 90 | 1012.9 |
| 20260830090852 | 54 | 307 | 0.0 | 0.0 | 0.00 | 0.00 | 0.00 | 90 | 1012.8 |
| 20260830090348 | 54 | 293 | 0.0 | 0.0 | 0.00 | 0.00 | 0.00 | 90 | 1012.9 |
| 20260830085848 | 54 | 294 | 0.0 | 0.0 | 0.00 | 0.00 | 0.00 | 90 | 1012.9 |
| 20260830085343 | 54 | 310 | 0.0 | 0.0 | 0.00 | 0.00 | 0.00 | 90 | 1012.9 |
| 20260830084839 | 54 | 310 | 0.0 | 0.0 | 0.00 | 0.00 | 0.00 | 90 | 1012.8 |
| 20260830084334 | 54 | 310 | 0.0 | 0.0 | 0.00 | 0.00 | 0.00 | 90 | 1012.8 |
| 20260830083829 | 54 | 310 | 0.0 | 0.0 | 0.00 | 0.00 | 0.00 | 90 | 1012.9 |
| 20260830083326 | 54 | 309 | 0.0 | 0.0 | 0.00 | 0.00 | 0.00 | 89 | 1012.9 |
| 20260830082825 | 54 | 310 | 0.0 | 0.0 | 0.00 | 0.00 | 0.00 | 89 | 1012.9 |
| 20260830082319 | 54 | 311 | 0.0 | 0.0 | 0.00 | 0.00 | 0.00 | 89 | 1013.0 |
| 20260830081814 | 54 | 307 | 0.0 | 0.0 | 0.00 | 0.00 | 0.00 | 89 | 1013.1 |
| 20260830081308 | 54 | 307 | 0.0 | 0.0 | 0.00 | 0.00 | 0.00 | 89 | 1013.1 |
| 20260830080803 | 54 | 307 | 0.0 | 0.0 | 0.00 | 0.00 | 0.00 | 89 | 1013.0 |
| 20260830080300 | 54 | 307 | 0.0 | 0.0 | 0.00 | 0.00 | 0.00 | 89 | 1013.0 |
| 20260830075758 | 55 | 318 | 0.0 | 0.0 | 0.00 | 0.00 | 0.00 | 89 | 1013.1 |
| 20260830075254 | 55 | 318 | 0.0 | 0.0 | 0.00 | 0.00 | 0.00 | 89 | 1013.0 |
| 20260830074749 | 55 | 318 | 0.0 | 0.0 | 0.00 | 0.00 | 0.00 | 89 | 1013.1 |
| 20260830074246 | 55 | 307 | 0.0 | 0.0 | 0.00 | 0.00 | 0.00 | 89 | 1013.1 |
| 20260830073741 | 55 | 308 | 0.0 | 0.0 | 0.00 | 0.00 | 0.00 | 89 | 1013.1 |
| 20260830073237 | 55 | 307 | 0.0 | 0.0 | 0.00 | 0.00 | 0.00 | 89 | 1013.1 |
| 20260830072736 | 55 | 298 | 0.0 | 0.0 | 0.00 | 0.00 | 0.00 | 89 | 1013.1 |
| 20260830072231 | 55 | 297 | 0.0 | 0.0 | 0.00 | 0.00 | 0.00 | 89 | 1013.1 |
| 20260830071726 | 55 | 287 | 0.0 | 0.0 | 0.00 | 0.00 | 0.00 | 89 | 1013.1 |
| 20260830071225 | 55 | 314 | 0.0 | 0.0 | 0.00 | 0.00 | 0.00 | 88 | 1013.1 |
| 20260830070720 | 55 | 314 | 0.0 | 0.0 | 0.00 | 0.00 | 0.00 | 88 | 1013.1 |
| 20260830070214 | 55 | 314 | 0.0 | 0.0 | 0.00 | 0.00 | 0.00 | 88 | 1013.0 |
| 20260830065713 | 55 | 314 | 0.0 | 0.0 | 0.00 | 0.00 | 0.00 | 87 | 1012.9 |
| 20260830065213 | 55 | 314 | 0.0 | 0.0 | 0.00 | 0.00 | 0.00 | 87 | 1013.2 |
| 20260830064712 | 55 | 302 | 0.0 | 0.0 | 0.00 | 0.00 | 0.00 | 87 | 1013.0 |
| 20260830064208 | 56 | 294 | 0.0 | 0.0 | 0.00 | 0.00 | 0.00 | 87 | 1013.0 |
| 20260830063708 | 56 | 296 | 0.0 | 0.0 | 0.00 | 0.00 | 0.00 | 87 | 1013.0 |
| 20260830063207 | 56 | 317 | 0.0 | 0.0 | 0.00 | 0.00 | 0.00 | 86 | 1013.0 |